[Date Prev][Date Next][Thread Prev][Thread Next] - [Date Index][Thread Index][Author Index]
2 Line ISS Keps 10-2
- Subject: [sarex] 2 Line ISS Keps 10-2
- From: "Dave Larsen PhD" <doc@xxxxxxxxxxx>
- Date: Thu, 2 Oct 2003 03:34:43 -0700
ISS
1 25544U 98067A 03275.13419507 -.00442172 00000-0 -52526-2 0 5818
2 25544 51.6317 201.3422 0007926 321.9985 127.7992 15.61855852277717
----
Via the sarex mailing list at AMSAT.ORG courtesy of AMSAT-NA.
To unsubscribe, send "unsubscribe sarex" to Majordomo@amsat.org
AMSAT Home